FW7587 Weather Reports


Display with metric or nautical units.
time (UTC)temp
F
wind
direction
speed
MPH
gust
MPH
rain 1hr
in
rain 24hr
in
rain mn
in
humidity
%
barometer
mb
20260506123054 73 98 0.0 1.0 0.00 0.00 0.00 90 1010.7
20260506121600 73 98 0.0 1.0 0.00 0.00 0.00 90 1010.8
20260506120110 73 0 0.0 0.0 0.00 0.00 0.00 90 1010.8
20260506114606 73 0 0.0 0.0 0.00 0.00 0.00 90 1010.6
20260506113050 73 0 0.0 0.0 0.00 0.00 0.00 90 1010.6
20260506111555 73 0 0.0 1.0 0.00 0.00 0.00 90 1010.5
20260506110054 73 154 0.0 1.0 0.00 0.00 0.00 90 1010.4
20260506104552 73 0 0.0 1.0 0.00 0.00 0.00 90 1010.3
20260506103052 73 0 0.0 2.0 0.00 0.00 0.00 90 1010.3
20260506101553 73 210 0.0 2.0 0.00 0.00 0.00 90 1010.2
20260506100054 73 0 0.0 2.0 0.00 0.00 0.00 90 1010.1
20260506094553 73 159 1.0 4.0 0.00 0.00 0.00 90 1010.1
20260506093106 73 132 0.0 6.0 0.00 0.00 0.00 90 1010.1
20260506091551 73 0 2.0 5.0 0.00 0.00 0.00 89 1009.9
20260506090057 73 215 1.0 8.0 0.00 0.00 0.00 89 1009.9
20260506084551 73 162 2.0 8.0 0.00 0.00 0.00 88 1009.9
20260506083050 73 150 2.0 6.0 0.00 0.00 0.00 88 1010.0
20260506081553 74 148 2.0 9.0 0.00 0.00 0.00 88 1009.9
20260506073107 74 230 1.0 8.0 0.00 0.00 0.00 88 1010.3
20260506071548 74 134 2.0 9.0 0.00 0.00 0.00 88 1010.3
20260506061559 74 173 4.0 10.0 0.00 0.00 0.00 87 1010.6
20260506044604 75 154 1.0 7.0 0.00 0.00 0.00 86 1010.6
20260506043054 75 124 1.0 8.0 0.00 0.00 0.00 86 1010.7
20260506041606 75 0 1.0 6.0 0.00 0.00 0.00 86 1010.4
20260506040100 75 126 1.0 9.0 0.00 0.00 0.00 86 1010.2
20260506034551 75 137 1.0 5.0 0.00 0.00 0.00 87 1010.0
20260506033055 75 113 0.0 5.0 0.00 0.00 0.00 87 1010.0
20260506031551 74 0 0.0 4.0 0.00 0.00 0.00 87 1009.7
20260506030052 74 158 0.0 1.0 0.00 0.00 0.00 86 1009.5
20260506024558 75 0 0.0 0.0 0.00 0.00 0.00 85 1009.3
20260506023055 75 0 0.0 1.0 0.00 0.00 0.00 84 1009.1
20260506021551 75 0 0.0 1.0 0.00 0.00 0.00 83 1008.8
20260506020117 76 0 0.0 0.0 0.00 0.00 0.00 82 1008.5
20260506014556 77 0 0.0 1.0 0.00 0.00 0.00 81 1008.3
20260506013053 78 0 0.0 1.0 0.00 0.00 0.00 80 1007.9
20260506011553 79 0 0.0 1.0 0.00 0.00 0.00 78 1008.0
20260506010054 80 0 0.0 1.0 0.00 0.00 0.00 76 1008.0
20260506004548 81 0 0.0 1.0 0.00 0.00 0.00 74 1008.0
20260506003048 82 0 0.0 1.0 0.00 0.00 0.00 71 1008.0
20260506001605 83 149 1.0 4.0 0.00 0.00 0.00 69 1008.2
20260506000122 83 146 0.0 3.0 0.00 0.00 0.00 69 1007.9
20260505234556 83 184 1.0 6.0 0.00 0.00 0.00 68 1008.0
20260505233056 83 200 3.0 7.0 0.00 0.00 0.00 68 1007.9
20260505231556 84 221 2.0 7.0 0.00 0.00 0.00 67 1008.0
20260505230056 84 174 2.0 9.0 0.00 0.00 0.00 67 1007.8
20260505224552 85 185 2.0 8.0 0.00 0.00 0.00 67 1007.7
20260505223053 85 205 2.0 7.0 0.00 0.00 0.00 67 1007.7
20260505221601 84 95 3.0 9.0 0.00 0.00 0.00 67 1007.8
20260505220108 85 148 2.0 9.0 0.00 0.00 0.00 67 1007.8
20260505214601 85 199 2.0 10.0 0.00 0.00 0.00 66 1007.8
20260505213058 86 191 1.0 6.0 0.00 0.00 0.00 66 1008.1
20260505211626 84 143 2.0 8.0 0.00 0.00 0.00 67 1008.2
20260505210049 85 206 3.0 9.0 0.00 0.00 0.00 66 1008.5
20260505204559 86 127 3.0 7.0 0.00 0.00 0.00 65 1008.7
20260505203055 85 150 3.0 8.0 0.00 0.00 0.00 68 1008.9
20260505201551 84 171 2.0 10.0 0.00 0.00 0.00 67 1009.1
20260505200052 85 179 3.0 9.0 0.00 0.00 0.00 65 1009.4
20260505194557 83 253 3.0 8.0 0.00 0.00 0.00 69 1009.6
20260505193053 83 259 4.0 11.0 0.00 0.00 0.00 69 1009.7
20260505191549 82 111 4.0 8.0 0.00 0.00 0.00 69 1010.0
20260505190058 82 164 3.0 13.0 0.00 0.00 0.00 71 1010.0
20260505184551 81 267 3.0 8.0 0.00 0.00 0.00 72 1010.2
20260505183054 81 199 2.0 7.0 0.00 0.00 0.00 72 1010.3
20260505181629 80 218 2.0 8.0 0.00 0.00 0.00 76 1010.6
20260505180103 79 253 3.0 7.0 0.00 0.00 0.00 77 1010.6
20260505174556 77 238 3.0 7.0 0.00 0.00 0.00 78 1010.8
20260505173052 77 268 3.0 7.0 0.00 0.00 0.00 78 1010.9
20260505171601 76 194 4.0 7.0 0.00 0.00 0.00 80 1010.9
20260505170052 75 0 3.0 9.0 0.00 0.00 0.00 82 1011.0
20260505164555 74 209 1.0 6.0 0.00 0.00 0.00 83 1011.2
20260505163053 73 167 1.0 7.0 0.00 0.00 0.00 85 1011.0
20260505161552 72 139 3.0 8.0 0.00 0.00 0.00 86 1010.9
20260505153057 71 273 4.0 8.0 0.00 0.00 0.00 88 1010.8
20260505151559 70 150 2.0 9.0 0.00 0.00 0.00 89 1010.8
20260505124551 69 170 3.0 9.0 0.00 0.00 0.00 88 1009.9